Márcio Cunha

Recruteur - Bahia
20 Févr 2028
Dimanche
Processus

Personnalité

Adaptabilité (7) Ambition (5) Controverse (3) Loyauté (11) Pression (16) Professionnalisme (17) Sportivité (17) Tempérament (14)

Profil

Style d'entraînement Démocratique
Diplôme National B
Détermination 7
Gestion des joueurs 13
Motivation 7
Discipline 5
Satisfaction professionnelle
100%
Fatigue
0%
Rôle Recruteur
Salaire 34.6K p/s
Contrat 14.03.2030

Performance

Comportement Bon
Efficacité de l'entraînement
60%
Développement des joueurs
55%
Prévention des blessures
55%
Mise en place tactique
70%

Événements récents

A participé à une réunion de recrutement 7j
A participé à une réunion de recrutement 7j
A participé à une réunion de recrutement 14j
A participé à une réunion de recrutement 14j
A participé à une réunion de recrutement 21j
A participé à une réunion de recrutement 21j
En formation continue 28j
En formation continue 28j

Suivi en cours

76
Joueur Club Statut Capacité Confiance Observé Dernière observation Dernier vote
Rodrigues Mirassol Actif 129 / 112 51% 1 28.06.2027 -
Giorgian De Arrascaeta Flamengo Actif 130 / 133 51% 1 07.06.2027 -
Jofre Torrents Ajax Actif 130 / 129 40% 6 30.05.2027 -
Matías Gómez Granada Actif 112 / 123 40% 3 30.05.2027 -
Leandro Martins Benfica Actif 84 / 110 40% 2 27.05.2027 -
Caleb Yirenkyi Coventry City Actif 126 / 148 40% 2 20.05.2027 -
Eduardo Felicíssimo Sporting CP Actif 129 / 121 40% 3 20.05.2027 -
Tiago Freitas Benfica Actif 94 / 109 40% 2 18.05.2027 -
Rayhan Momade Sporting CP Actif 89 / 98 40% 1 18.05.2027 -
Daniel Costa Sporting CP Actif 111 / 108 40% 2 16.05.2027 -
Cheveyo Tsawa Club Brugge Actif 103 / 133 40% 2 16.05.2027 -
Ernie Weaver AFC Wimbledon Actif 102 / 121 40% 2 09.05.2027 -
Jan Bürger Gillingham Actif 124 / 125 40% 1 09.05.2027 -
Adam Bakoune Ospitaletto Actif 113 / 114 40% 1 08.05.2027 -
Zaïd BafdilI Sporting CP Actif 74 / 93 40% 1 08.05.2027 -
Martim Cunha Porto Actif 100 / 118 40% 1 04.05.2027 -
Gonçalo Oliveira Benfica Actif 129 / 126 40% 2 02.05.2027 -
Dylan Lawlor Cardiff City Actif 127 / 133 40% 1 29.04.2027 -
João Simões Sporting CP Actif 124 / 146 40% 4 20.04.2027 -
José Neto Moreirense Actif 111 / 110 40% 1 18.04.2027 -
Keagan Tau Ajax Cape Town Actif 80 / 88 40% 2 17.04.2027 -
Toni Tamarit Alverca Actif 114 / 138 40% 1 13.04.2027 -
David Ozoh Derby County Actif 111 / 117 40% 2 12.04.2027 -
Sascha Britschgi Padova Actif 136 / 129 40% 1 12.04.2027 -
James Dornelly Peterborough United Actif 101 / 108 40% 1 05.04.2027 -
Salvador Blopá Casa Pia Actif 119 / 105 40% 1 03.04.2027 -
Christ Inao Oulaï Fiorentina Actif 131 / 146 40% 1 02.04.2027 -
Riley Owen Trento Actif 122 / 119 40% 1 23.03.2027 -
João Teixeira Porto Actif 96 / 111 40% 1 19.03.2027 -
Lucas Høgsberg RC Strasbourg Actif 116 / 153 40% 1 18.03.2027 -
Alberto Costa Porto Actif 131 / 140 40% 2 30.11.2026 -
Dara O'Shea Ipswich Town Actif 129 / 142 40% 1 30.11.2026 -
Mandla Mahlangu Ajax Cape Town Actif 102 / 95 40% 1 29.11.2026 -
Marco Asensio Fenerbahce Actif 158 / 150 40% 2 26.11.2026 Plus d'infos
Shea Charles Southampton Actif 121 / 130 40% 1 26.11.2026 -
Gonçalo Inácio Sporting CP Actif 160 / 148 40% 1 26.11.2026 Plus d'infos
Diego Lainez Tigres Actif 119 / 125 40% 1 26.11.2026 -
Lucas Piton Vasco da Gama Actif 129 / 122 40% 1 23.11.2026 -
Víctor Gómez Braga Actif 121 / 120 40% 2 22.11.2026 -
Jalen Blesa Rio Ave Actif 115 / 124 40% 1 20.11.2026 -
Yousef Salech Cardiff City Actif 135 / 112 40% 1 20.11.2026 -
Santi García Gil Vicente Actif 153 / 133 40% 1 18.11.2026 -
Jesús Ricardo Angulo Toluca Perdu 146 / 141 40% 1 18.11.2026 -
Mario Dorgeles Braga Actif 120 / 122 40% 1 17.11.2026 -
Iván Fresneda Sporting CP Actif 120 / 137 40% 1 15.11.2026 -
Martín Tejón Maritimo Actif 114 / 105 40% 2 13.11.2026 -
José Manuel López Palmeiras Actif 141 / 133 40% 1 13.11.2026 -
Hwang In-Beom Porto Perdu 164 / 140 40% 1 09.11.2026 -
Luís Esteves Atlas Actif 134 / 130 40% 3 05.11.2026 -
Heorhii Sudakov Benfica Actif 143 / 130 40% 1 04.11.2026 Plus d'infos
Tariq Lamptey Queens Park Rangers Actif 114 / 136 40% 1 04.11.2026 -
Zé Leite Leixões Actif 122 / 133 40% 1 02.11.2026 -
Fredrik Aursnes Benfica Actif 153 / 157 40% 1 27.10.2026 -
Agustín Módica Gimnasia y Esgrima Actif 122 / 113 40% 1 19.10.2026 -
Agustín Palavecino Cruz Azul Actif 132 / 140 40% 1 17.10.2026 -
Sergi Altimira Sporting CP Actif 119 / 151 40% 1 15.10.2026 -
Alan Varela Porto Actif 141 / 135 40% 1 15.10.2026 -
Manuel Ospina Cortulua Actif 138 / 117 40% 1 13.10.2026 -
Nicolás Cordero Aldosivi Actif 111 / 114 40% 1 12.10.2026 -
Santiago Paiva Santos Actif 98 / 110 40% 1 12.10.2026 -
John McGinn Aston Villa Actif 137 / 146 40% 1 07.10.2026 -
Brais Méndez Columbus Crew Actif 144 / 153 40% 1 01.10.2026 -
Andrés Gómez Vasco da Gama Actif 134 / 140 40% 1 28.09.2026 -
William Gomes Porto Actif 141 / 147 40% 2 27.09.2026 -
João Palhinha Benfica Actif 160 / 163 40% 2 27.09.2026 -
Renato Sanches AVS Actif 124 / 146 40% 1 22.09.2026 -
Guilherme Arana Fluminense Actif 133 / 141 40% 1 22.09.2026 -
Ryan Sessegnon Fulham Actif 125 / 138 40% 1 12.09.2026 -
Victor Froholdt Porto Actif 146 / 164 40% 2 11.09.2026 -
Oussama Idrissi Pachuca Actif 133 / 142 40% 1 09.09.2026 -
João Carvalho Estoril Praia Actif 126 / 115 40% 1 07.09.2026 -
Gonçalo Moreira Benfica Actif 111 / 132 40% 1 14.08.2026 -
Markus Jensen Nacional Actif 90 / 105 40% 1 10.08.2026 -
Manuel Mendonça Moreirense Actif 94 / 106 40% 1 10.08.2026 -
Unai Marrero Real Sociedad Actif 111 / 116 40% 1 07.08.2026 -
El Hadji Malick Diouf Brentford Actif 133 / 145 40% 1 02.08.2026 -